DW9142 Weather Reports


time (UTC)temp
C
wind
direction
speed
KPH
gust
KPH
rain 1hr
cm
rain 24hr
cm
rain mn
cm
humidity
%
barometer
mb
20260504213026 22 0.0 0.0 0.00 0.00 0.00 32 1009.5
20260504211522 23 0.0 0.0 0.00 0.00 0.00 33 1009.6
20260504210116 23 0.0 0.0 0.00 0.00 0.00 31 1009.7
20260504204602 23 0.0 0.0 0.00 0.00 0.00 29 1009.7
20260504203051 23 0.0 0.0 0.00 0.00 0.00 30 1009.7
20260504201529 23 0.0 0.0 0.00 0.00 0.00 30 1009.8
20260504200025 23 0.0 0.0 0.00 0.00 0.00 30 1009.8
20260504194503 23 0.0 0.0 0.00 0.00 0.00 30 1009.9
20260504193059 23 0.0 0.0 0.00 0.00 0.00 30 1010.1
20260504191546 23 0.0 0.0 0.00 0.00 0.00 31 1010.3
20260504190043 24 0.0 0.0 0.00 0.00 0.00 30 1010.5
20260504184513 23 0.0 0.0 0.00 0.00 0.00 29 1010.7
20260504183008 23 0.0 0.0 0.00 0.00 0.00 34 1010.9
20260504181548 23 0.0 0.0 0.00 0.00 0.00 30 1011.0
20260504180112 23 0.0 0.0 0.00 0.00 0.00 32 1011.3
20260504174519 23 0.0 0.0 0.00 0.00 0.00 33 1011.6
20260504173019 22 0.0 0.0 0.00 0.00 0.00 35 1011.7
20260504171556 22 0.0 0.0 0.00 0.00 0.00 34 1011.9
20260504081510 5 0.0 0.0 0.00 0.00 0.00 76 1014.6
20260504044517 8 0.0 0.0 0.00 0.00 0.00 55 1014.2
20260504043013 9 0.0 0.0 0.00 0.00 0.00 54 1014.0
20260504041508 9 0.0 0.0 0.00 0.00 0.00 53 1013.7
20260504040008 10 0.0 0.0 0.00 0.00 0.00 51 1013.6
20260504034600 10 0.0 0.0 0.00 0.00 0.00 49 1013.6
20260504033058 10 0.0 0.0 0.00 0.00 0.00 49 1013.5
20260504031617 10 0.0 0.0 0.00 0.00 0.00 48 1013.5
20260504030047 10 0.0 0.0 0.00 0.00 0.00 47 1013.4
20260504024545 10 0.0 0.0 0.00 0.00 0.00 47 1013.4
20260504023021 10 0.0 0.0 0.00 0.00 0.00 48 1013.4
20260504021518 10 0.0 0.0 0.00 0.00 0.00 48 1013.4
20260504020105 11 0.0 0.0 0.00 0.00 0.00 46 1013.3
20260504014552 11 0.0 0.0 0.00 0.00 0.00 46 1013.3
20260504013031 10 0.0 0.0 0.00 0.00 0.00 49 1013.2
20260504011527 10 0.0 0.0 0.00 0.00 0.00 50 1013.0
20260504010005 11 0.0 0.0 0.00 0.00 0.00 46 1012.7
20260504004501 12 0.0 0.0 0.00 0.00 0.00 41 1012.5
20260504003044 12 0.0 0.0 0.00 0.00 0.00 38 1012.4
20260504001542 13 0.0 0.0 0.00 0.00 0.00 37 1012.2
20260504000013 13 0.0 0.0 0.00 0.00 0.00 36 1012.0
20260503234511 14 0.0 0.0 0.00 0.00 0.00 34 1011.9
20260503233048 14 0.0 0.0 0.00 0.00 0.00 33 1011.8
20260503231550 15 0.0 0.0 0.00 0.00 0.00 32 1011.8
20260503230023 15 0.0 0.0 0.00 0.00 0.00 32 1011.6
20260503224518 15 0.0 0.0 0.00 0.00 0.00 31 1011.6
20260503223057 15 0.0 0.0 0.00 0.00 0.00 29 1011.5
20260503221552 15 0.0 0.0 0.00 0.00 0.00 29 1011.4
20260503220037 16 0.0 0.0 0.00 0.00 0.00 30 1011.6
20260503214527 16 0.0 0.0 0.00 0.00 0.00 29 1011.6